Hourly Data Report for February 14, 2004

TORONTO CITY
ONTARIO

43°40'00.000" N
79°24'00.000" W
112.50 m
6158355
71508
XTO

Download Data

Hourly Data (February 2004)
Hourly Data Report for February 14, 2004
TIME
LST
Temp Definition
°C
Dew Point Definition
°C
Rel Hum Definition
%
Precip. Amount Definition
mm

Wind Dir Definition
10's deg

Wind Spd Definition
km/h
Visibility Definition
km
Stn Press Definition
kPa
Hmdx Definition


Wind Chill Definition


Weather Definition


00:00 -3.6 -8.2 70   LegendMM LegendMM LegendMM 99.68     LegendNANA
01:00 -3.7 -8.1 71   LegendMM LegendMM LegendMM 99.69     LegendNANA
02:00 -3.7 -7.9 73   LegendMM LegendMM LegendMM 99.68     LegendNANA
03:00 -4.0 -7.9 74   LegendMM LegendMM LegendMM 99.67     LegendNANA
04:00 -4.1 -8.0 74   LegendMM LegendMM LegendMM 99.65     LegendNANA
05:00 -4.2 -8.0 75   LegendMM LegendMM LegendMM 99.69     LegendNANA
06:00 -3.9 -7.7 75   LegendMM LegendMM LegendMM 99.72     LegendNANA
07:00 -3.9 -7.7 75   LegendMM LegendMM LegendMM 99.74     LegendNANA
08:00 -4.0 -7.8 75   LegendMM LegendMM LegendMM 99.84     LegendNANA
09:00 -3.3 -7.4 73   LegendMM LegendMM LegendMM 99.86     LegendNANA
10:00 -2.4 -6.8 72   LegendMM LegendMM LegendMM 99.87     LegendNANA
11:00 -0.5 -6.2 65   LegendMM LegendMM LegendMM 99.86     LegendNANA
12:00 -0.1 -5.6 66   LegendMM LegendMM LegendMM 99.88     LegendNANA
13:00 -0.5 -4.8 73   LegendMM LegendMM LegendMM 99.82     LegendNANA
14:00 -2.9 -6.7 75   LegendMM LegendMM LegendMM 99.90     LegendNANA
15:00 -4.8 -11.2 61   LegendMM LegendMM LegendMM 100.01     LegendNANA
16:00 -6.0 -12.8 59   LegendMM LegendMM LegendMM 100.05     LegendNANA
17:00 -7.3 -12.5 66   LegendMM LegendMM LegendMM 100.15     LegendNANA
18:00 -7.7 -13.8 62   LegendMM LegendMM LegendMM 100.23     LegendNANA
19:00 -8.4 -14.5 61   LegendMM LegendMM LegendMM 100.34     LegendNANA
20:00 -9.6 -14.3 69   LegendMM LegendMM LegendMM 100.42     LegendNANA
21:00 -10.1 -15.3 66   LegendMM LegendMM LegendMM 100.46     LegendNANA
22:00 -10.3 -15.7 65   LegendMM LegendMM LegendMM 100.53     LegendNANA
23:00 -10.0 -16.5 59   LegendMM LegendMM LegendMM 100.56     LegendNANA

Notes on Data Quality.

Legend

  • E = Estimated
  • M = Missing
  • NA = Not Available*
  • [empty] = Indicates an unobserved value
Date modified: